Dewpoint
13 13 24 39 45 38 44 46 40 48 55 54 53 52 54 56 57 57 58 57 57 58 58 60 61 62 64 65 65 66 67 68 68 67 66 67 65 66 67 67 69 68 71 70
12 14 15 18 37 32 27 27 31 51 54 52 51 51 53 55 56 56 57 56 56 58 58 59 61 62 63 64 65 66 66 68 67 66 66 66 66 66 66 67 69 70 70 71
13 14 11 14 21 25 24 23 29 33 52 52 53 50 53 56 55 56 57 56 56 57 58 59 61 61 62 63 64 65 66 67 67 67 66 67 68 68 67 67 67 68 70 70
13 14 11 9 8 13 22 21 23 49 45 39 51 36 47 54 55 54 55 56 56 57 58 60 60 61 62 63 64 65 66 66 67 68 66 65 63 61 63 66 67 67 70 69
17 12 12 10 7 10 21 23 35 45 42 40 46 39 43 54 52 54 55 55 56 57 58 58 61 61 63 63 64 64 66 66 66 67 66 66 64 64 66 66 67 67 68 67
22 23 14 11 13 10 32 38 40 41 40 34 38 39 35 50 52 53 55 57 56 58 58 59 60 61 63 64 64 64 66 67 68 67 67 66 65 65 65 66 65 65 67 67
18 17 17 19 27 24 38 36 32 31 31 28 38 37 35 48 50 53 55 57 58 57 58 59 60 61 63 63 64 64 65 66 67 67 66 66 67 67 65 67 65 65 66 66
16 13 16 17 18 30 34 36 24 22 23 23 38 34 35 50 52 55 56 56 59 60 58 58 59 61 62 63 64 64 66 66 66 66 67 68 68 66 65 67 65 66 65 66
19 20 20 24 21 27 26 33 27 25 29 25 27 37 41 50 49 51 53 54 58 58 59 58 60 61 62 63 64 64 66 66 66 66 66 67 68 67 66 68 68 66 68 67
22 20 29 29 29 29 21 26 20 24 20 18 29 37 30 46 48 48 50 50 51 55 60 59 61 61 62 63 64 64 65 66 66 66 66 66 66 68 67 68 68 68 68 69
21 22 28 32 26 23 27 28 35 31 31 17 19 25 44 46 49 49 48 51 55 57 58 60 60 62 63 64 64 63 65 66 66 65 66 66 65 67 68 67 68 68 69 70
25 24 24 30 36 36 32 32 32 20 31 38 33 27 46 48 49 49 49 51 56 58 60 62 62 62 63 64 63 64 64 65 66 65 66 66 66 67 66 67 68 69 69 69
30 30 27 29 30 34 33 35 35 34 37 37 29 26 49 50 50 50 50 53 56 58 61 63 63 64 64 63 64 65 65 65 66 67 66 65 66 66 66 67 68 69 69 69
31 31 26 21 25 31 32 34 36 32 29 31 30 30 42 49 50 48 52 56 56 56 61 63 62 63 65 63 65 66 67 67 68 68 67 66 66 66 66 67 68 68 69 69
28 26 28 26 26 31 31 32 35 33 34 29 31 35 37 44 49 49 50 54 55 55 58 62 63 64 65 65 66 67 68 69 69 68 68 68 68 68 68 67 68 68 69 69
26 26 27 27 29 26 29 32 35 34 36 36 37 37 42 46 49 52 50 54 56 56 56 58 62 64 64 65 66 67 67 68 68 68 68 68 68 69 69 68 68 69 69 69
29 27 27 23 32 30 27 29 34 35 37 35 35 37 46 48 49 51 52 53 56 59 59 59 60 62 64 65 66 66 66 67 66 66 67 66 67 68 68 69 69 69 69 69
31 32 31 27 31 26 27 36 35 34 36 39 43 45 47 48 52 57 59 58 59 61 62 63 61 62 64 64 64 65 65 65 66 66 65 66 66 66 66 67 68 68 69 69
32 30 28 26 25 26 29 38 37 36 33 40 42 47 49 54 57 56 59 60 60 61 61 62 63 63 64 62 63 64 65 65 65 65 65 66 66 66 66 65 65 66 67 67
29 36 27 27 24 23 27 37 42 40 33 45 45 48 51 55 49 50 59 60 61 62 62 62 63 62 62 61 61 62 63 64 64 65 65 66 66 65 65 64 64 65 66 66
27 27 26 26 24 25 29 38 41 30 26 46 48 51 53 53 49 57 60 60 61 61 61 61 60 59 59 61 62 62 63 63 64 65 66 66 66 65 65 65 65 65 66 66
27 25 25 27 24 20 35 42 34 36 43 49 51 55 56 55 57 58 59 60 60 59 58 57 57 57 59 60 61 62 62 63 64 66 65 65 65 64 64 64 64 64 63 62
26 30 25 26 25 36 45 43 44 45 48 51 51 55 56 57 58 58 58 58 58 57 57 56 56 57 57 59 60 61 62 63 64 63 62 61 61 61 62 63 63 62 61 60
39 36 29 31 38 39 42 45 48 48 50 52 53 54 56 56 58 58 58 58 57 57 57 56 57 57 56 59 60 61 62 63 62 61 60 59 58 56 56 57 59 60 60 60
39 40 37 39 42 43 44 46 50 51 52 51 54 55 56 57 58 58 58 58 57 57 57 57 56 55 57 58 59 60 62 62 60 58 58 57 55 54 52 49 49 54 51 53
40 39 38 36 42 43 42 47 52 51 50 51 53 55 56 57 58 59 58 58 57 57 57 56 57 56 58 59 60 60 61 61 59 58 57 56 55 53 51 52 51 47 47 48
Wind_Speed
2 6 12 15 9 2 3 3 1 2 9 8 13 10 10 9 13 16 16 19 20 22 18 14 15 16 14 14 16 17 15 12 10 9 8 6 8 7 5 4 4 4 5 3
3 10 7 2 7 5 3 4 2 4 8 8 4 12 11 13 18 21 20 21 23 20 16 16 16 17 18 18 17 17 17 16 13 10 9 6 7 8 6 5 6 6 5 4
10 3 4 9 8 9 9 8 5 2 8 5 1 4 6 8 12 16 20 25 21 20 19 18 18 19 18 19 19 19 20 19 15 12 7 4 6 5 5 5 7 7 6 6
7 4 4 11 13 11 12 13 3 9 8 1 5 1 3 7 13 14 17 20 22 21 19 14 19 19 20 20 16 17 19 18 16 15 13 11 13 13 10 9 10 8 8 7
3 7 10 9 13 16 9 4 10 13 4 3 5 3 3 2 10 17 15 16 19 19 23 24 20 21 20 18 19 18 18 17 17 16 16 15 14 11 7 8 10 9 8 8
10 1 5 6 5 17 11 10 9 6 3 5 1 4 3 5 4 4 2 7 17 18 22 24 19 19 19 17 17 18 18 17 17 17 17 17 16 12 10 11 11 11 9 8
2 5 3 5 7 8 8 12 5 5 6 4 1 4 6 5 5 6 9 8 8 16 21 22 23 21 20 21 19 18 19 19 18 19 18 18 16 12 14 12 12 11 11 9
5 7 7 4 5 7 12 11 9 10 9 7 3 5 3 4 2 4 7 10 13 12 21 22 23 19 20 21 20 20 20 19 20 19 20 18 17 13 12 12 11 11 11 11
6 2 0 1 2 4 6 7 2 4 2 4 2 4 8 7 6 5 6 7 7 5 10 18 19 20 17 19 21 22 21 20 19 21 19 19 18 17 14 12 11 11 10 10
3 3 1 5 4 12 4 9 5 5 10 12 5 4 8 9 13 5 3 5 6 6 4 10 14 19 20 17 18 19 21 22 22 20 20 20 20 18 16 13 13 12 11 11
7 5 4 3 1 9 5 5 4 3 1 11 13 7 5 6 9 8 4 3 6 6 5 6 11 15 19 19 18 18 20 20 22 20 20 19 19 18 17 16 15 14 11 11
8 3 4 2 1 2 1 4 6 8 5 1 3 7 4 3 5 4 4 5 3 6 8 9 10 13 17 20 20 21 22 21 22 21 18 19 18 18 19 17 16 14 14 12
14 4 6 4 3 2 4 4 4 6 3 7 6 5 3 4 5 4 5 2 2 5 7 6 10 14 18 20 22 19 20 21 18 19 18 17 18 19 20 20 17 15 14 13
12 5 13 15 10 5 6 8 8 7 6 5 11 8 5 10 12 8 4 2 2 3 6 3 5 2 13 16 17 18 18 18 17 17 19 19 19 20 20 20 19 18 16 14
6 8 5 3 5 6 6 11 14 12 6 7 2 8 6 7 14 12 7 4 2 3 5 6 10 7 6 6 7 10 11 11 12 13 15 17 16 17 18 18 18 18 17 16
3 6 5 5 4 7 7 7 13 9 4 10 5 11 5 2 5 11 10 7 5 3 2 7 12 6 8 7 6 7 7 6 4 7 11 9 12 14 16 16 17 17 17 16
10 11 9 7 2 8 8 15 15 10 9 9 11 7 8 6 9 10 10 9 9 4 4 3 6 7 7 8 7 7 6 7 5 4 4 5 6 12 14 13 13 14 15 15
12 11 4 6 9 8 2 1 7 15 8 14 6 5 10 10 7 5 1 5 4 5 4 5 5 5 5 8 8 7 3 2 3 6 5 2 4 7 6 7 7 6 6 10
5 10 6 8 14 3 3 6 8 11 13 16 15 8 10 10 7 4 2 3 5 5 6 6 5 6 6 7 6 4 2 5 3 5 7 10 13 12 8 7 5 2 2 4
6 6 15 7 11 14 12 8 7 7 12 11 15 15 18 14 10 5 6 7 8 8 7 7 5 4 3 3 1 6 7 6 6 5 5 8 8 7 7 7 6 4 6 7
9 6 21 11 10 6 7 8 9 11 6 14 16 18 20 15 1 14 12 9 8 6 5 4 3 2 2 2 3 3 4 4 4 3 3 6 8 11 10 9 7 9 11 8
14 16 9 6 10 12 12 12 13 10 4 13 16 19 18 8 14 16 13 12 10 8 6 2 2 2 3 5 4 4 5 5 6 1 4 5 4 4 4 5 4 5 6 7
10 9 16 16 14 2 22 5 7 4 7 11 15 17 17 16 17 16 15 13 10 8 5 2 2 3 3 4 4 4 5 4 2 7 8 9 9 9 7 6 6 7 8 7
1 2 7 9 6 7 17 5 3 4 6 15 16 20 19 18 18 16 15 13 11 9 7 4 1 1 2 3 4 4 6 4 6 9 9 8 10 10 9 8 8 8 7 5
4 6 11 4 3 3 7 7 9 9 15 15 17 18 17 18 18 17 15 13 11 9 6 5 3 1 1 3 3 5 4 3 9 9 9 9 8 8 9 10 7 6 5 3
8 5 7 11 18 9 18 14 15 16 19 21 20 16 14 18 19 16 13 12 11 9 7 4 4 2 2 1 2 4 4 4 8 7 6 6 6 6 7 9 11 14 11 11
Wind_Direction
76 185 193 198 181 12 187 158 160 211 173 187 215 233 226 197 208 191 210 212 211 219 215 213 216 208 203 195 194 189 189 187 177 182 196 212 209 205 206 204 185 192 220 215
180 223 209 224 206 243 263 294 342 93 168 212 229 242 224 196 207 208 203 214 216 223 216 211 206 206 205 197 197 192 194 190 187 197 197 205 200 206 205 211 194 195 220 222
224 237 161 185 181 209 244 251 234 276 155 207 276 266 203 213 225 214 217 220 217 219 218 212 208 210 206 206 197 196 197 193 193 197 188 182 180 166 179 208 207 205 209 218
245 220 202 195 218 203 242 234 224 155 170 244 213 118 269 238 240 234 225 220 220 220 216 209 212 211 210 208 203 198 199 192 195 194 208 212 208 200 201 206 206 196 203 208
216 181 190 198 212 189 238 158 157 161 149 184 186 257 159 279 260 246 230 232 229 222 213 213 208 211 214 201 199 198 197 195 192 197 214 219 226 210 197 188 196 198 199 210
255 198 213 213 177 195 150 115 107 124 164 235 156 261 241 199 223 279 205 246 227 220 222 219 213 208 213 208 202 193 195 197 197 195 206 213 220 205 199 195 200 206 209 211
225 216 219 181 112 161 182 184 170 200 212 258 141 216 270 198 225 261 297 296 263 235 223 213 209 202 204 205 204 201 195 203 200 195 204 208 222 220 215 202 210 208 208 216
223 193 191 181 228 167 179 210 205 230 245 252 158 230 236 210 203 242 274 297 303 263 218 215 211 210 204 205 204 203 201 205 199 201 206 209 211 220 222 214 214 220 222 225
184 206 235 296 155 173 170 197 99 118 94 256 202 266 261 207 237 255 280 306 329 321 230 222 218 210 205 204 207 204 206 207 205 203 207 209 208 218 223 226 227 231 232 235
196 176 55 137 131 51 182 134 192 225 232 248 225 251 246 224 223 224 269 297 318 321 272 230 223 222 217 202 207 208 216 210 208 208 211 212 208 211 219 227 231 233 230 228
172 225 145 193 209 167 144 176 78 123 269 253 261 255 212 243 215 215 227 317 339 335 304 255 237 229 218 205 198 219 219 215 211 209 212 214 211 214 221 222 232 237 230 224
182 178 185 137 87 353 112 167 186 241 211 180 274 264 186 209 169 210 277 299 329 331 310 286 264 233 220 216 209 214 219 215 215 213 210 214 219 218 221 226 224 232 231 239
169 190 166 151 165 173 208 165 141 115 127 192 232 262 145 168 198 219 277 248 249 305 314 297 282 252 220 212 211 213 215 219 216 213 214 217 220 223 224 225 225 221 229 230
152 142 206 213 209 156 184 188 182 215 213 204 240 260 205 209 218 214 211 203 253 317 333 343 353 294 209 201 202 205 209 210 211 209 213 217 218 222 226 227 223 218 223 232
188 187 169 146 155 176 198 189 183 202 204 228 261 234 261 215 217 205 190 177 163 54 40 53 72 73 102 159 186 192 208 205 207 216 218 215 222 228 222 220 223 227 226 231
152 163 145 166 204 217 218 214 200 204 197 245 250 266 207 161 168 183 191 202 221 238 35 40 57 57 75 86 114 146 144 148 154 211 227 222 228 228 228 216 215 221 229 235
163 149 170 193 171 172 230 218 202 205 200 222 230 248 165 166 174 188 200 228 243 227 164 126 81 28 28 55 63 69 99 133 150 185 182 181 219 229 224 225 217 219 228 235
154 142 151 158 153 209 247 326 217 218 224 214 233 192 180 164 141 139 176 236 207 168 137 144 133 107 89 67 49 62 10 132 219 223 201 184 192 202 170 177 192 183 216 240
214 147 127 173 201 296 227 207 185 191 239 215 211 172 156 142 137 137 117 150 166 146 120 110 122 109 104 87 101 107 54 69 191 245 229 225 211 203 197 186 176 188 226 271
155 164 182 165 207 222 227 191 182 175 245 192 188 171 165 158 186 173 139 153 149 139 133 133 131 119 110 81 214 162 145 158 162 161 232 239 208 192 197 190 211 223 257 268
162 142 194 179 207 236 238 158 150 199 253 175 180 170 168 178 132 139 138 139 145 138 135 121 98 44 31 16 27 36 39 40 349 332 282 235 225 220 223 237 231 214 222 213
170 169 178 154 203 232 159 137 192 213 123 169 169 168 164 146 140 146 147 147 151 149 144 125 59 39 20 16 22 57 63 15 334 350 109 99 121 114 139 161 139 143 148 138
204 186 175 190 204 127 178 174 170 148 145 164 161 165 158 145 154 156 157 158 159 157 150 124 15 2 4 19 22 15 18 351 47 104 103 103 95 80 70 111 116 103 105 112
257 169 140 145 192 207 193 178 161 156 145 157 157 161 163 159 164 166 167 166 166 166 165 164 179 303 325 349 351 14 341 344 118 120 114 100 94 88 73 62 60 75 80 97
281 174 147 106 107 137 195 200 168 141 139 140 143 156 165 161 169 173 175 173 170 166 162 165 157 65 337 334 4 13 357 105 112 117 113 105 95 85 83 65 47 62 59 35
211 179 178 175 176 169 196 171 156 150 152 150 146 152 163 165 168 177 176 172 171 169 163 169 164 128 120 28 42 26 27 117 127 119 102 97 109 119 116 116 96 55 72 71